Flag Weather past 2 weeks in Poznan, Poland

Now
43 °F

Passing clouds.


Feels Like: 41 °F
Forecast: 35 / 41 °F
Wind: 3 mph from West

Location: Poznan Airport

Current Time: Nov 24, 2014 at 11:38:42 PM

Latest Report: Nov 24, 2014 at 11:00 PM


Visibility: 4 mi

Pressure: 30.27 "Hg

Humidity: 93%

Dew point: 41 °F

Location of PoznanLocation

Historic Weather in Poznan — Graph

°F

Poznan temperature yesterday

Maximum temperature yesterday: 43 °F (at 12:30 PM)
Minimum temperature yesterday: 37 °F (at 3:00 AM)
Average temperature yesterday: 40 °F

Past Weeks' High & Low Weather Summary

 TemperatureHumidityPressure
High57 °F (Nov 11, 11:30 AM)100% (Nov 9, 10:00 PM)30.36 "Hg (Nov 9, 10:00 PM)
Low36 °F (Nov 24, 2:30 AM)72% (Nov 11, 11:30 AM)29.71 "Hg (Nov 16, 7:30 AM)
Average44 °F91%30.04 "Hg
* Reported Nov 9 10:00 PM — Nov 24 10:30 PM, Poznan, Weather by CustomWeather, © 2014

Note: Actual official high and low records may vary slightly from our data, if they occured in-between our weather recording intervals... More about our weather records

Advertising

Poznan weather history for previous 24 hours

 ConditionsComfort  
Time TempWeatherWind HumidityBarometerVisibility
10:30 PM
Nov 24
43 °FPartly cloudy.5 mph93%30.24 "Hg4 mi
10:00 PM43 °FFog.6 mph100%30.24 "Hg2 mi
9:30 PM43 °FFog.7 mph100%30.24 "Hg2 mi
9:00 PM43 °FFog.7 mph100%30.24 "Hg2 mi
8:30 PM43 °FFog.6 mph100%30.24 "Hg2 mi
8:00 PM43 °FFog.7 mph100%30.21 "Hg2 mi
7:30 PM43 °FFog.9 mph100%30.21 "Hg2 mi
7:00 PM43 °FDrizzle. Fog.9 mph93%30.21 "Hg1 mi
6:30 PM41 °FFog.6 mph100%30.18 "Hg1 mi
6:00 PM41 °FFog.6 mph100%30.18 "Hg1 mi
5:30 PM41 °FFog.5 mph93%30.18 "Hg1 mi
5:00 PM41 °FFog.5 mph93%30.18 "Hg1 mi
4:30 PM41 °FLight rain. Fog.3 mph93%30.18 "Hg1 mi
4:00 PM39 °FLight rain. Fog.3 mph93%30.18 "Hg1 mi
3:30 PM39 °FLight rain. Fog.5 mph93%30.15 "Hg1 mi
3:00 PM39 °FLight rain. Fog.7 mph93%30.15 "Hg2 mi
2:30 PM41 °FLight rain. Fog.8 mph87%30.18 "Hg2 mi
2:00 PM41 °FScattered clouds.9 mph81%30.15 "Hg4 mi
1:30 PM41 °FPassing clouds.8 mph81%30.15 "HgN/A
1:00 PM41 °FSunny.12 mph81%30.18 "Hg10 mi
12:30 PM41 °FPassing clouds.10 mph76%30.18 "HgN/A
12:00 PM41 °FPassing clouds.10 mph76%30.18 "HgN/A
11:30 AM39 °FScattered clouds.13 mph81%30.18 "HgN/A
11:00 AM39 °FScattered clouds.10 mph75%30.21 "HgN/A
10:30 AM39 °FPassing clouds.9 mph75%30.18 "HgN/A
10:00 AM37 °FPassing clouds.15 mph81%30.18 "Hg5 mi
9:30 AM36 °FPassing clouds.18 mph87%30.15 "Hg5 mi
9:00 AM36 °FPassing clouds.15 mph87%30.18 "HgN/A
8:30 AM36 °FPassing clouds.17 mph87%30.18 "HgN/A
8:00 AM36 °FPassing clouds.15 mph87%30.18 "HgN/A
7:30 AM36 °FScattered clouds.14 mph81%30.18 "HgN/A
7:00 AM36 °FPassing clouds.14 mph81%30.21 "HgN/A
6:30 AM36 °FClear.14 mph87%30.21 "Hg10 mi
6:00 AM36 °FClear.14 mph87%30.21 "Hg10 mi
5:30 AM36 °FClear.15 mph87%30.21 "Hg10 mi
5:00 AM36 °FClear.15 mph87%30.21 "Hg10 mi
4:30 AM36 °FClear.16 mph87%30.21 "Hg10 mi
4:00 AM36 °FPassing clouds.17 mph87%30.24 "HgN/A
3:30 AM36 °FPassing clouds.14 mph87%30.24 "HgN/A
3:00 AM36 °FPassing clouds.17 mph87%30.24 "HgN/A
2:30 AM36 °FClear.17 mph87%30.24 "Hg10 mi
2:00 AM37 °FClear.16 mph87%30.27 "Hg10 mi
1:30 AM37 °FClear.14 mph87%30.27 "Hg10 mi
12:30 AM39 °FClear.15 mph81%30.27 "Hg10 mi
12:00 AM39 °FClear.14 mph81%30.27 "Hg10 mi
11:30 PM
Nov 23
39 °FClear.14 mph81%30.30 "Hg10 mi
11:00 PM39 °FClear.16 mph81%30.30 "Hg10 mi
Weather by CustomWeather, © 2014

See weather overviewHow to use our weather pages